Crosby, ND

8:39 PM CST on February 23, 2017 (GMT -0600)
Crosby

Weather History for KD50 - October, 2011

Change the Weather History Date:

Thursday, October 20, 2011

  Actual Average (KISN) Record (KISN)
Temperature  
Mean Temperature 48 °F -  
Max Temperature 62 °F 57 °F 78 °F (1901)
Min Temperature 33 °F 30 °F 12 °F (1896)
Degree Days  
Heating Degree Days 18    
Moisture  
Dew Point 28 °F    
Average Humidity 56    
Maximum Humidity 70    
Minimum Humidity 34    
Precipitation  
Precipitation 0.00 in - - ()
Sea Level Pressure  
Sea Level Pressure 29.87 in    
Wind  
Wind Speed 15 mph (SSW)    
Max Wind Speed 22 mph    
Max Gust Speed 29 mph    
Visibility 10 miles    
Events      
Averages and records for this station are not official NWS values.
T = Trace of Precipitation, MM = Missing Value Source: NWS Daily Summary

Daily Weather History Graph

Daily Weather History Graph

Search for Another Location

Airport or City:

Trip Planner

Search our weather history database for the weather conditions in past years. The results will help you decide how hot, cold, wet, or windy it might be!

Date:

Astronomy

Oct. 20, 2011 Rise Set
Actual Time 8:21 AM CDT 6:54 PM CDT
Civil Twilight 7:48 AM CDT 7:26 PM CDT
Nautical Twilight 7:12 AM CDT 8:02 PM CDT
Astronomical Twilight 6:35 AM CDT 8:39 PM CDT
Moon 12:32 AM CDT (10/20) 3:36 PM CDT (10/20)
Length of Visible Light 11h 37m
Length of Day
10h 33m
Last Quarter, 44% of the Moon is Illuminated
Oct 20
Last Quarter
Oct 26
New
Nov 2
First Quarter
Nov 10
Full
Nov 18
Last Quarter

Hourly Weather History & Observations

Time (CDT) Temp. Windchill Dew Point Humidity Pressure Visibility Wind Dir Wind Speed Gust Speed Precip Events Conditions
12:15 AM 39.2 °F 30.5 °F 26.6 °F 61% 29.97 in 10.0 mi South 16.1 mph 24.2 mph N/A   Clear
12:35 AM 39.2 °F 30.8 °F 26.6 °F 61% 29.97 in 10.0 mi South 15.0 mph - N/A   Clear
12:55 AM 37.4 °F 27.8 °F 26.6 °F 65% 29.96 in 10.0 mi South 17.3 mph 20.7 mph N/A   Clear
1:15 AM 37.4 °F 28.9 °F 26.6 °F 65% 29.97 in 10.0 mi South 13.8 mph 18.4 mph N/A   Clear
1:35 AM 37.4 °F 28.9 °F 26.6 °F 65% 29.96 in 10.0 mi South 13.8 mph - N/A   Clear
1:55 AM 37.4 °F 29.3 °F 26.6 °F 65% 29.96 in 10.0 mi South 12.7 mph - N/A   Clear
2:15 AM 37.4 °F 28.9 °F 26.6 °F 65% 29.96 in 10.0 mi South 13.8 mph - N/A   Clear
2:35 AM 37.4 °F 27.8 °F 24.8 °F 60% 29.95 in 10.0 mi South 17.3 mph - N/A   Clear
2:55 AM 37.4 °F 27.5 °F 24.8 °F 60% 29.95 in 10.0 mi South 18.4 mph 24.2 mph N/A   Clear
3:15 AM 35.6 °F 26.2 °F 24.8 °F 65% 29.95 in 10.0 mi South 15.0 mph - N/A   Clear
3:35 AM 35.6 °F 25.9 °F 24.8 °F 65% 29.94 in 10.0 mi South 16.1 mph - N/A   Clear
3:55 AM 35.6 °F 26.2 °F 24.8 °F 65% 29.94 in 10.0 mi South 15.0 mph 20.7 mph N/A   Clear
4:15 AM 35.6 °F 25.9 °F 24.8 °F 65% 29.93 in 10.0 mi South 16.1 mph 23.0 mph N/A   Clear
4:35 AM 35.6 °F 26.2 °F 24.8 °F 65% 29.92 in 10.0 mi South 15.0 mph 20.7 mph N/A   Clear
4:55 AM 35.6 °F 26.2 °F 24.8 °F 65% 29.92 in 10.0 mi South 15.0 mph 20.7 mph N/A   Clear
5:15 AM 35.6 °F 25.9 °F 24.8 °F 65% 29.91 in 10.0 mi South 16.1 mph - N/A   Clear
5:35 AM 35.6 °F 25.5 °F 24.8 °F 65% 29.90 in 10.0 mi South 17.3 mph 21.9 mph N/A   Clear
6:15 AM 35.6 °F 25.9 °F 24.8 °F 65% 29.90 in 10.0 mi South 16.1 mph - N/A   Clear
6:35 AM 35.6 °F 25.5 °F 24.8 °F 65% 29.89 in 10.0 mi South 17.3 mph - N/A   Clear
6:55 AM 35.6 °F 25.5 °F 24.8 °F 65% 29.88 in 10.0 mi South 17.3 mph - N/A   Clear
7:15 AM 35.6 °F 25.9 °F 24.8 °F 65% 29.88 in 10.0 mi South 16.1 mph - N/A   Clear
7:35 AM 35.6 °F 25.9 °F 24.8 °F 65% 29.88 in 10.0 mi South 16.1 mph - N/A   Clear
7:55 AM 33.8 °F 23.5 °F 24.8 °F 70% 29.87 in 10.0 mi South 16.1 mph 23.0 mph N/A   Clear
8:15 AM 33.8 °F 23.5 °F 24.8 °F 70% 29.87 in 10.0 mi South 16.1 mph 21.9 mph N/A   Clear
8:35 AM 33.8 °F 23.5 °F 24.8 °F 70% 29.86 in 10.0 mi South 16.1 mph - N/A   Clear
8:55 AM 35.6 °F 25.9 °F 24.8 °F 65% 29.86 in 10.0 mi South 16.1 mph - N/A   Clear
9:15 AM 35.6 °F 26.2 °F 24.8 °F 65% 29.86 in 10.0 mi South 15.0 mph - N/A   Clear
9:35 AM 37.4 °F 28.2 °F 26.6 °F 65% 29.86 in 10.0 mi South 16.1 mph - N/A   Clear
9:55 AM 39.2 °F 30.8 °F 26.6 °F 61% 29.86 in 10.0 mi South 15.0 mph 19.6 mph N/A   Clear
10:15 AM 39.2 °F 29.6 °F 26.6 °F 61% 29.85 in 10.0 mi South 19.6 mph 26.5 mph N/A   Clear
10:35 AM 41.0 °F 31.6 °F 26.6 °F 57% 29.85 in 10.0 mi SSW 20.7 mph 26.5 mph N/A   Clear
10:55 AM 41.0 °F 31.4 °F 26.6 °F 57% 29.84 in 10.0 mi SSW 21.9 mph - N/A   Clear
11:15 AM 44.6 °F 36.1 °F 28.4 °F 53% 29.83 in 10.0 mi SSW 21.9 mph 28.8 mph N/A   Clear
11:55 AM 46.4 °F 38.7 °F 28.4 °F 50% 29.83 in 10.0 mi SSW 20.7 mph 26.5 mph N/A   Clear
12:15 PM 46.4 °F 39.5 °F 28.4 °F 50% 29.84 in 10.0 mi SW 17.3 mph - N/A   Clear
12:35 PM 46.4 °F 39.8 °F 28.4 °F 50% 29.83 in 10.0 mi SSW 16.1 mph - N/A   Clear
12:55 PM 48.2 °F - 30.2 °F 50% 29.82 in 10.0 mi SSW 18.4 mph - N/A   Clear
1:15 PM 50.0 °F - 30.2 °F 47% 29.82 in 10.0 mi SSW 17.3 mph - N/A   Clear
1:55 PM 53.6 °F - 32.0 °F 44% 29.81 in 10.0 mi SSW 13.8 mph - N/A   Clear
2:15 PM 55.4 °F - 32.0 °F 41% 29.80 in 10.0 mi SSW 10.4 mph 18.4 mph N/A   Clear
2:35 PM 57.2 °F - 32.0 °F 38% 29.81 in 10.0 mi SW 15.0 mph - N/A   Clear
2:55 PM 57.2 °F - 32.0 °F 38% 29.79 in 10.0 mi SW 13.8 mph - N/A   Clear
3:15 PM 59.0 °F - 32.0 °F 36% 29.79 in 10.0 mi SW 13.8 mph - N/A   Clear
3:35 PM 60.8 °F - 32.0 °F 34% 29.78 in 10.0 mi WSW 13.8 mph - N/A   Clear
3:55 PM 59.0 °F - 33.8 °F 39% 29.79 in 10.0 mi WSW 13.8 mph - N/A   Clear
4:15 PM 62.6 °F - 33.8 °F 34% 29.79 in 10.0 mi WSW 15.0 mph - N/A   Clear
4:35 PM 62.6 °F - 33.8 °F 34% 29.79 in 10.0 mi WSW 12.7 mph - N/A   Clear
4:55 PM 62.6 °F - 35.6 °F 37% 29.79 in 10.0 mi WSW 10.4 mph - N/A   Clear
5:35 PM 55.4 °F - 35.6 °F 47% 29.79 in 7.0 mi SW 4.6 mph - N/A   Clear
5:55 PM 57.2 °F - 37.4 °F 48% 29.80 in 10.0 mi WSW 5.8 mph - N/A   Clear
6:15 PM 55.4 °F - 37.4 °F 51% 29.80 in 10.0 mi West 6.9 mph - N/A   Clear
6:35 PM 53.6 °F - 37.4 °F 54% 29.80 in 10.0 mi West 9.2 mph - N/A   Clear
6:55 PM 53.6 °F - 35.6 °F 51% 29.81 in 10.0 mi WNW 10.4 mph - N/A   Clear
7:15 PM 51.8 °F - 35.6 °F 54% 29.81 in 10.0 mi WNW 6.9 mph - N/A   Clear
7:35 PM 48.2 °F - 35.6 °F 62% 29.82 in 10.0 mi West 9.2 mph - N/A   Clear
7:55 PM 48.2 °F - 33.8 °F 58% 29.82 in 10.0 mi West 9.2 mph - N/A   Clear
8:15 PM 48.2 °F - 33.8 °F 58% 29.83 in 10.0 mi West 10.4 mph - N/A   Clear
8:35 PM 46.4 °F 41.5 °F 35.6 °F 66% 29.84 in 10.0 mi West 10.4 mph - N/A   Clear
9:35 PM 48.2 °F - 33.8 °F 58% 29.84 in 10.0 mi WNW 10.4 mph - N/A   Clear
9:55 PM 46.4 °F 41.5 °F 33.8 °F 62% 29.85 in 10.0 mi WNW 10.4 mph - N/A   Clear
10:15 PM 44.6 °F 38.8 °F 33.8 °F 66% 29.86 in 10.0 mi West 11.5 mph - N/A   Clear
10:35 PM 44.6 °F 39.2 °F 33.8 °F 66% 29.86 in 10.0 mi WNW 10.4 mph - N/A   Clear
10:55 PM 46.4 °F 41.5 °F 33.8 °F 62% 29.87 in 10.0 mi West 10.4 mph - N/A   Clear
11:15 PM 44.6 °F 39.2 °F 33.8 °F 66% 29.88 in 10.0 mi West 10.4 mph - N/A   Clear
11:35 PM 42.8 °F 36.6 °F 32.0 °F 66% 29.88 in 10.0 mi West 11.5 mph - N/A   Clear